Location: Barrio Pajares
(40.5500°N, 4.1667°W)
Time: 17:02:21
(UTC+00:00)

Cosmos 1763 Rocket - Pass Details

Date: 18 April 2024
Orbit: 730 x 778 km, 74.0° (Epoch: 23 May)

Event Time Altitude Azimuth Distance (km) Brightness Sun altitude
Exits shadow 20:57:57 45° 103° (ESE) 1,001 3.7 -21.0°
Drops below altitude 10° 21:02:48 10° 32° (NNE) 2,262 6.0 -21.7°
Sets 21:05:15 0° 26° (NNE) 3,197 6.9 -22.1°
